Time,TemperatureF,DewpointF,PressureIn,WindDirection,WindDirectionDegrees,WindSpeedMPH,WindSpeedGustMPH,Humidity,HourlyPrecipIn,Conditions,Clouds,dailyrainin,SolarRadiationWatts/m^2,SoftwareType,DateUTC
2013-04-04 00:04:00,43.6,34.1,30.01,SSW,194,10.8,18.0,69,0.00,FEW,,0.00,0.0,WeatherDisplay:10.37,2013-04-04 05:04:00,
2013-04-04 00:10:00,43.6,34.1,30.01,SSW,197,9.0,20.0,69,0.00,FEW,FEW,0.00,0.0,WeatherDisplay:10.37,2013-04-04 05:10:00,
2013-04-04 00:15:00,43.6,34.1,30.02,SSW,192,12.0,18.0,69,0.00,FEW,FEW,0.00,0.0,WeatherDisplay:10.37,2013-04-04 05:15:00,
2013-04-04 00:20:00,43.6,34.1,30.02,SSW,195,9.0,20.0,69,0.00,FEW,FEW,0.00,0.0,WeatherDisplay:10.37,2013-04-04 05:20:00,
2013-04-04 00:25:00,43.6,33.7,30.02,SSW,195,12.0,20.0,68,0.00,FEW,FEW,0.00,0.0,WeatherDisplay:10.37,2013-04-04 05:25:00,
2013-04-04 00:30:00,43.6,33.7,30.02,SSW,198,9.0,15.0,68,0.00,FEW,FEW,0.00,0.0,WeatherDisplay:10.37,2013-04-04 05:30:00,
2013-04-04 00:35:00,43.4,33.9,30.03,SSW,195,7.0,14.0,69,0.00,FEW,FEW,0.00,0.0,WeatherDisplay:10.37,2013-04-04 05:35:00,
2013-04-04 00:40:00,43.2,33.7,30.03,SSW,203,8.0,14.0,69,0.00,FEW,FEW,0.00,0.0,WeatherDisplay:10.37,2013-04-04 05:40:00,
2013-04-04 00:45:00,43.0,33.9,30.03,SSW,202,9.0,13.0,70,0.00,FEW,FEW,0.00,0.0,WeatherDisplay:10.37,2013-04-04 05:45:00,
2013-04-04 00:50:00,42.9,33.8,30.02,SSW,203,9.0,13.0,70,0.00,FEW,FEW,0.00,0.0,WeatherDisplay:10.37,2013-04-04 05:50:00,
2013-04-04 00:55:00,42.8,33.7,30.02,South,189,9.0,15.0,70,0.00,FEW,FEW,0.00,0.0,WeatherDisplay:10.37,2013-04-04 05:55:00,
2013-04-04 01:00:00,42.7,33.6,30.02,South,191,8.0,17.0,70,0.00,FEW,FEW,0.00,0.0,WeatherDisplay:10.37,2013-04-04 06:00:00,
2013-04-04 01:05:00,42.8,33.7,30.02,SSW,192,10.0,17.0,70,0.00,OVC,OVC,0.00,0.0,WeatherDisplay:10.37,2013-04-04 06:05:00,
2013-04-04 01:10:00,42.8,33.7,30.01,South,189,9.0,18.0,70,0.00,OVC,OVC,0.00,0.0,WeatherDisplay:10.37,2013-04-04 06:10:00,
2013-04-04 01:15:00,42.8,33.7,30.01,SSW,192,9.0,20.0,70,0.00,OVC,OVC,0.00,0.0,WeatherDisplay:10.37,2013-04-04 06:15:00,
2013-04-04 01:20:00,42.9,33.8,30.01,South,186,13.0,20.0,70,0.00,OVC,OVC,0.00,0.0,WeatherDisplay:10.37,2013-04-04 06:20:00,
2013-04-04 01:25:00,42.9,33.8,30.01,SSW,194,13.0,21.0,70,0.00,OVC,OVC,0.00,0.0,WeatherDisplay:10.37,2013-04-04 06:25:00,
2013-04-04 01:30:00,42.8,33.7,30.00,SSW,207,12.0,21.0,70,0.00,OVC,OVC,0.00,0.0,WeatherDisplay:10.37,2013-04-04 06:30:00,
2013-04-04 01:35:00,42.6,33.9,30.00,SSW,199,10.0,20.0,71,0.00,OVC,OVC,0.00,0.0,WeatherDisplay:10.37,2013-04-04 06:35:00,
2013-04-04 01:40:00,42.4,33.7,29.99,South,190,12.0,21.0,71,0.00,OVC,OVC,0.00,0.0,WeatherDisplay:10.37,2013-04-04 06:40:00,
2013-04-04 01:45:00,42.2,33.8,29.99,South,188,13.0,20.0,72,0.00,OVC,OVC,0.00,0.0,WeatherDisplay:10.37,2013-04-04 06:45:00,
2013-04-04 01:50:00,42.0,34.0,29.99,South,183,9.0,17.0,73,0.00,OVC,OVC,0.00,0.0,WeatherDisplay:10.37,2013-04-04 06:50:00,
2013-04-04 01:55:00,41.9,33.9,29.99,SSW,194,13.0,22.0,73,0.00,OVC,OVC,0.00,0.0,WeatherDisplay:10.37,2013-04-04 06:55:00,
2013-04-04 02:00:00,41.9,33.9,29.99,SSW,195,9.0,15.0,73,0.00,OVC,OVC,0.00,0.0,WeatherDisplay:10.37,2013-04-04 07:00:00,
2013-04-04 02:05:00,41.8,33.8,30.00,SSW,202,8.0,18.0,73,0.00,SCT,SCT,0.00,0.0,WeatherDisplay:10.37,2013-04-04 07:05:00,
2013-04-04 02:10:00,41.6,33.9,30.00,SSW,204,9.0,20.0,74,0.00,SCT,SCT,0.00,0.0,WeatherDisplay:10.37,2013-04-04 07:10:00,
2013-04-04 02:15:00,41.7,34.0,30.00,SSW,199,8.0,18.0,74,0.00,SCT,SCT,0.00,0.0,WeatherDisplay:10.37,2013-04-04 07:15:00,
2013-04-04 02:20:00,42.1,34.4,30.00,SSW,212,7.0,15.0,74,0.00,SCT,SCT,0.00,0.0,WeatherDisplay:10.37,2013-04-04 07:20:00,
2013-04-04 02:25:00,42.3,34.3,30.00,SW,217,6.2,14.0,73,0.00,SCT,,0.00,0.0,WeatherDisplay:10.37,2013-04-04 07:25:00,
2013-04-04 02:30:00,42.4,34.4,30.00,SSW,205,3.4,10.4,73,0.00,SCT,,0.00,0.0,WeatherDisplay:10.37,2013-04-04 07:30:00,
2013-04-04 02:35:00,42.5,34.5,30.00,West,266,3.8,6.0,73,0.00,SCT,,0.00,0.0,WeatherDisplay:10.37,2013-04-04 07:35:00,
2013-04-04 02:40:00,42.5,34.8,30.00,West,277,6.0,11.5,74,0.00,SCT,,0.00,0.0,WeatherDisplay:10.37,2013-04-04 07:40:00,
2013-04-04 02:45:00,42.4,34.7,30.01,SSW,196,6.1,9.0,74,0.00,SCT,,0.00,0.0,WeatherDisplay:10.37,2013-04-04 07:45:00,
2013-04-04 02:50:00,42.2,34.8,30.01,West,276,3.5,11.5,75,0.00,SCT,,0.00,0.0,WeatherDisplay:10.37,2013-04-04 07:50:00,
2013-04-04 02:57:00,41.8,34.8,30.00,WSW,242,5.6,9.2,76,0.00,SCT,,0.00,0.0,WeatherDisplay:10.37,2013-04-04 07:57:00,
2013-04-04 03:02:00,41.3,35.0,30.01,South,179,5.1,10.0,78,0.00,CLR,,0.00,0.0,WeatherDisplay:10.37,2013-04-04 08:02:00,
2013-04-04 03:07:00,40.9,34.9,30.01,SSW,203,5.1,8.0,79,0.00,CLR,,0.00,0.0,WeatherDisplay:10.37,2013-04-04 08:07:00,
2013-04-04 03:12:00,40.6,34.9,30.01,West,259,4.1,7.0,80,0.00,CLR,,0.00,0.0,WeatherDisplay:10.37,2013-04-04 08:12:00,
2013-04-04 03:17:00,40.2,34.8,30.01,West,273,3.5,9.2,81,0.00,CLR,,0.00,0.0,WeatherDisplay:10.37,2013-04-04 08:17:00,
2013-04-04 03:22:00,39.9,34.9,30.00,WNW,291,2.1,5.0,82,0.00,CLR,,0.00,0.0,WeatherDisplay:10.37,2013-04-04 08:22:00,
2013-04-04 03:27:00,39.7,34.7,30.01,West,262,4.5,9.0,82,0.00,CLR,,0.00,0.0,WeatherDisplay:10.37,2013-04-04 08:27:00,
2013-04-04 03:32:00,39.7,35.0,30.01,WNW,294,1.7,3.5,83,0.00,CLR,,0.00,0.0,WeatherDisplay:10.37,2013-04-04 08:32:00,
2013-04-04 03:37:00,39.5,35.1,30.01,West,264,2.2,6.9,84,0.00,CLR,,0.00,0.0,WeatherDisplay:10.37,2013-04-04 08:37:00,
2013-04-04 03:42:00,39.3,34.9,30.02,WNW,290,1.5,3.5,84,0.00,CLR,,0.00,0.0,WeatherDisplay:10.37,2013-04-04 08:42:00,
2013-04-04 03:47:00,39.1,35.0,30.02,West,271,1.9,4.0,85,0.00,CLR,,0.00,0.0,WeatherDisplay:10.37,2013-04-04 08:47:00,
2013-04-04 03:52:00,38.8,34.7,30.02,WNW,289,2.5,6.0,85,0.00,CLR,,0.00,0.0,WeatherDisplay:10.37,2013-04-04 08:52:00,
2013-04-04 03:57:00,38.8,35.0,30.02,West,259,1.0,3.5,86,0.00,CLR,,0.00,0.0,WeatherDisplay:10.37,2013-04-04 08:57:00,
2013-04-04 04:02:00,38.7,34.9,30.02,NW,309,2.8,5.0,86,0.00,CLR,,0.00,0.0,WeatherDisplay:10.37,2013-04-04 09:02:00,
2013-04-04 04:07:00,38.6,34.8,30.02,West,277,4.8,9.0,86,0.00,CLR,,0.00,0.0,WeatherDisplay:10.37,2013-04-04 09:07:00,
2013-04-04 04:12:00,38.5,34.7,30.02,WNW,296,2.8,5.0,86,0.00,CLR,,0.00,0.0,WeatherDisplay:10.37,2013-04-04 09:12:00,
2013-04-04 04:17:00,38.4,34.6,30.02,WNW,286,0.8,5.8,86,0.00,CLR,,0.00,0.0,WeatherDisplay:10.37,2013-04-04 09:17:00,
2013-04-04 04:22:00,38.3,34.8,30.02,WNW,294,2.9,5.0,87,0.00,CLR,,0.00,0.0,WeatherDisplay:10.37,2013-04-04 09:22:00,
2013-04-04 04:27:00,38.1,34.6,30.02,WNW,295,1.5,4.6,87,0.00,CLR,,0.00,0.0,WeatherDisplay:10.37,2013-04-04 09:27:00,
2013-04-04 04:32:00,38.0,34.5,30.02,WNW,290,0.7,3.5,87,0.00,CLR,,0.00,0.0,WeatherDisplay:10.37,2013-04-04 09:32:00,
2013-04-04 04:37:00,37.9,34.4,30.03,WNW,288,4.3,6.0,87,0.00,CLR,,0.00,0.0,WeatherDisplay:10.37,2013-04-04 09:37:00,
2013-04-04 04:44:00,37.7,34.2,30.03,NW,306,3.7,6.0,87,0.00,CLR,,0.00,0.0,WeatherDisplay:10.37,2013-04-04 09:44:00,
2013-04-04 04:49:00,37.6,34.1,30.03,NW,313,4.0,6.0,87,0.00,CLR,,0.00,0.0,WeatherDisplay:10.37,2013-04-04 09:49:00,
2013-04-04 04:54:00,37.5,34.0,30.03,NW,313,5.2,7.0,87,0.00,CLR,,0.00,0.0,WeatherDisplay:10.37,2013-04-04 09:54:00,
2013-04-04 05:00:00,37.3,33.8,30.02,WNW,288,5.8,8.1,87,0.00,CLR,,0.00,0.0,WeatherDisplay:10.37,2013-04-04 10:00:00,
2013-04-04 05:05:00,37.0,33.5,30.03,WNW,293,2.0,6.0,87,0.00,CLR,CLR,0.00,0.0,WeatherDisplay:10.37,2013-04-04 10:05:00,
2013-04-04 05:10:00,36.9,33.4,30.03,NW,307,2.0,9.0,87,0.00,CLR,CLR,0.00,0.0,WeatherDisplay:10.37,2013-04-04 10:10:00,
2013-04-04 05:15:00,36.8,33.3,30.03,NW,316,2.0,7.0,87,0.00,CLR,CLR,0.00,0.0,WeatherDisplay:10.37,2013-04-04 10:15:00,
2013-04-04 05:20:00,36.8,33.3,30.03,NW,324,2.0,5.0,87,0.00,CLR,CLR,0.00,0.0,WeatherDisplay:10.37,2013-04-04 10:20:00,
2013-04-04 05:25:00,36.8,33.3,30.03,NW,318,3.0,5.0,87,0.00,CLR,CLR,0.00,0.0,WeatherDisplay:10.37,2013-04-04 10:25:00,
2013-04-04 05:30:00,36.8,33.0,30.03,NW,321,3.4,6.0,86,0.00,CLR,,0.00,0.0,WeatherDisplay:10.37,2013-04-04 10:30:00,
2013-04-04 05:35:00,36.7,32.9,30.04,NW,313,2.0,8.0,86,0.00,CLR,CLR,0.00,0.0,WeatherDisplay:10.37,2013-04-04 10:35:00,
2013-04-04 05:40:00,36.6,32.5,30.04,NW,321,2.0,6.0,85,0.00,CLR,CLR,0.00,0.0,WeatherDisplay:10.37,2013-04-04 10:40:00,
2013-04-04 05:45:00,36.6,32.5,30.04,NW,316,3.0,10.0,85,0.00,CLR,CLR,0.00,0.0,WeatherDisplay:10.37,2013-04-04 10:45:00,
2013-04-04 05:50:00,36.6,32.5,30.04,NW,314,1.0,7.0,85,0.00,CLR,CLR,0.00,0.0,WeatherDisplay:10.37,2013-04-04 10:50:00,
2013-04-04 05:55:00,36.6,32.2,30.04,NW,315,3.0,7.0,84,0.00,CLR,CLR,0.00,0.0,WeatherDisplay:10.37,2013-04-04 10:55:00,
2013-04-04 06:00:00,36.6,32.2,30.05,NW,322,3.0,9.0,84,0.00,CLR,CLR,0.00,0.0,WeatherDisplay:10.37,2013-04-04 11:00:00,
2013-04-04 06:05:00,36.4,31.7,30.05,NW,310,3.0,9.0,83,0.00,CLR,CLR,0.00,0.0,WeatherDisplay:10.37,2013-04-04 11:05:00,
2013-04-04 06:10:00,36.4,32.0,30.05,NW,326,5.0,5.0,84,0.00,CLR,,0.00,0.0,WeatherDisplay:10.37,2013-04-04 11:10:00,
2013-04-04 06:15:00,36.4,32.0,30.05,NW,326,5.0,5.0,84,0.00,CLR,,0.00,0.0,WeatherDisplay:10.37,2013-04-04 11:15:00,
2013-04-04 06:20:00,36.4,32.0,30.06,North,1,0.0,0.0,84,0.00,CLR,,0.00,0.0,WeatherDisplay:10.37,2013-04-04 11:20:00,
2013-04-04 06:25:00,36.4,32.0,30.06,North,0,0.0,0.0,84,0.00,CLR,,0.00,0.0,WeatherDisplay:10.37,2013-04-04 11:25:00,
2013-04-04 06:30:00,36.4,32.0,30.06,North,0,0.0,0.0,84,0.00,CLR,,0.00,0.0,WeatherDisplay:10.37,2013-04-04 11:30:00,
2013-04-04 06:35:00,35.9,31.5,30.06,NW,315,2.5,4.6,84,0.00,CLR,,0.00,0.0,WeatherDisplay:10.37,2013-04-04 11:35:00,
2013-04-04 06:40:00,35.7,31.3,30.06,WNW,289,4.4,6.0,84,0.00,CLR,,0.00,0.0,WeatherDisplay:10.37,2013-04-04 11:40:00,
2013-04-04 06:45:00,35.4,31.0,30.06,WNW,288,2.4,5.0,84,0.00,CLR,,0.00,0.0,WeatherDisplay:10.37,2013-04-04 11:45:00,
2013-04-04 06:50:00,35.2,30.9,30.07,WNW,291,3.9,7.0,84,0.00,CLR,,0.00,0.0,WeatherDisplay:10.37,2013-04-04 11:50:00,
2013-04-04 06:55:00,35.2,30.9,30.07,NW,306,0.6,3.5,84,0.00,CLR,,0.00,0.0,WeatherDisplay:10.37,2013-04-04 11:55:00,
2013-04-04 07:00:00,35.1,30.5,30.07,NW,304,2.4,5.0,83,0.00,CLR,,0.00,7.0,WeatherDisplay:10.37,2013-04-04 12:00:00,
2013-04-04 07:05:00,35.1,30.5,30.07,NW,313,1.7,3.5,83,0.00,CLR,,0.00,11.0,WeatherDisplay:10.37,2013-04-04 12:05:00,
2013-04-04 07:10:00,35.0,30.4,30.07,NW,314,2.1,4.0,83,0.00,CLR,,0.00,16.0,WeatherDisplay:10.37,2013-04-04 12:10:00,
2013-04-04 07:15:00,34.9,30.0,30.07,NW,311,0.3,4.6,82,0.00,CLR,,0.00,21.0,WeatherDisplay:10.37,2013-04-04 12:15:00,
2013-04-04 07:20:00,34.8,29.9,30.07,NW,310,1.4,3.5,82,0.00,CLR,,0.00,26.0,WeatherDisplay:10.37,2013-04-04 12:20:00,
2013-04-04 07:25:00,34.8,29.9,30.07,NW,310,3.6,7.0,82,0.00,CLR,,0.00,32.0,WeatherDisplay:10.37,2013-04-04 12:25:00,
2013-04-04 07:30:00,34.7,29.8,30.08,NW,315,1.2,3.5,82,0.00,CLR,,0.00,37.0,WeatherDisplay:10.37,2013-04-04 12:30:00,
2013-04-04 07:35:00,34.7,29.8,30.08,NW,316,1.6,4.0,82,0.00,CLR,,0.00,40.0,WeatherDisplay:10.37,2013-04-04 12:35:00,
2013-04-04 07:40:00,34.6,29.7,30.08,NW,319,1.3,4.0,82,0.00,CLR,,0.00,40.0,WeatherDisplay:10.37,2013-04-04 12:40:00,
2013-04-04 07:45:00,34.7,29.8,30.08,NW,316,0.6,3.5,82,0.00,CLR,,0.00,40.0,WeatherDisplay:10.37,2013-04-04 12:45:00,
2013-04-04 07:50:00,34.8,29.6,30.08,NW,321,3.7,5.8,81,0.00,CLR,,0.00,40.0,WeatherDisplay:10.37,2013-04-04 12:50:00,
2013-04-04 07:55:00,34.7,29.5,30.08,NW,313,3.3,5.0,81,0.00,CLR,,0.00,44.0,WeatherDisplay:10.37,2013-04-04 12:55:00,
2013-04-04 08:00:00,34.8,29.3,30.08,NW,312,2.5,4.0,80,0.00,CLR,,0.00,49.0,WeatherDisplay:10.37,2013-04-04 13:00:00,
2013-04-04 08:05:00,34.9,29.4,30.09,NW,319,2.5,5.0,80,0.00,CLR,,0.00,51.0,WeatherDisplay:10.37,2013-04-04 13:05:00,
2013-04-04 08:10:00,35.0,29.1,30.09,NW,309,5.5,9.2,79,0.00,CLR,,0.00,54.0,WeatherDisplay:10.37,2013-04-04 13:10:00,
2013-04-04 08:15:00,35.1,29.2,30.09,NW,317,3.7,8.1,79,0.00,CLR,,0.00,62.0,WeatherDisplay:10.37,2013-04-04 13:15:00,
2013-04-04 08:20:00,35.2,29.3,30.09,WNW,293,2.8,6.9,79,0.00,CLR,,0.00,77.0,WeatherDisplay:10.37,2013-04-04 13:20:00,
2013-04-04 08:25:00,35.3,29.1,30.09,North,360,6.5,11.5,78,0.00,CLR,,0.00,62.0,WeatherDisplay:10.37,2013-04-04 13:25:00,
2013-04-04 08:30:00,35.4,28.9,30.09,North,5,5.8,9.0,77,0.00,CLR,,0.00,69.0,WeatherDisplay:10.37,2013-04-04 13:30:00,
2013-04-04 08:35:00,35.4,28.9,30.09,NW,309,3.9,11.5,77,0.00,CLR,,0.00,241.0,WeatherDisplay:10.37,2013-04-04 13:35:00,
2013-04-04 08:40:00,35.8,29.3,30.10,NW,314,2.7,5.0,77,0.00,CLR,,0.00,290.0,WeatherDisplay:10.37,2013-04-04 13:40:00,
2013-04-04 08:45:00,36.1,29.3,30.10,NW,322,5.1,11.5,76,0.00,CLR,,0.00,283.0,WeatherDisplay:10.37,2013-04-04 13:45:00,
2013-04-04 08:50:00,36.1,29.3,30.10,NW,309,4.9,7.0,76,0.00,CLR,,0.00,102.0,WeatherDisplay:10.37,2013-04-04 13:50:00,
2013-04-04 08:55:00,35.8,29.0,30.10,NNW,335,5.5,12.0,76,0.00,CLR,,0.00,148.0,WeatherDisplay:10.37,2013-04-04 13:55:00,
2013-04-04 09:00:00,35.7,28.9,30.10,NW,325,6.3,10.4,76,0.00,CLR,,0.00,239.0,WeatherDisplay:10.37,2013-04-04 14:00:00,
2013-04-04 09:05:00,35.9,29.4,30.11,NNE,15,4.7,10.4,77,0.00,CLR,,0.00,301.0,WeatherDisplay:10.37,2013-04-04 14:05:00,
2013-04-04 09:10:00,36.1,29.3,30.11,NW,310,5.6,10.4,76,0.00,CLR,,0.00,290.0,WeatherDisplay:10.37,2013-04-04 14:10:00,
2013-04-04 09:16:00,36.3,29.5,30.11,NNW,328,5.7,12.0,76,0.00,CLR,,0.00,309.0,WeatherDisplay:10.37,2013-04-04 14:16:00,
2013-04-04 09:21:00,36.7,29.5,30.11,NW,319,4.2,11.5,75,0.00,CLR,,0.00,374.0,WeatherDisplay:10.37,2013-04-04 14:21:00,
2013-04-04 09:27:00,37.5,30.0,30.11,WNW,293,7.5,11.5,74,0.00,CLR,,0.00,376.0,WeatherDisplay:10.37,2013-04-04 14:27:00,
2013-04-04 09:32:00,37.5,30.0,30.11,North,11,6.8,11.5,74,0.00,CLR,,0.00,378.0,WeatherDisplay:10.37,2013-04-04 14:32:00,
2013-04-04 09:37:00,37.5,30.0,30.11,NNW,327,6.1,13.0,74,0.00,CLR,,0.00,415.0,WeatherDisplay:10.37,2013-04-04 14:37:00,
2013-04-04 09:42:00,37.9,30.0,30.11,NW,325,4.9,11.5,73,0.00,CLR,,0.00,434.0,WeatherDisplay:10.37,2013-04-04 14:42:00,
2013-04-04 09:47:00,38.1,29.9,30.11,NNW,338,5.5,9.2,72,0.00,CLR,,0.00,441.0,WeatherDisplay:10.37,2013-04-04 14:47:00,
2013-04-04 09:52:00,38.5,30.3,30.12,NW,321,4.1,8.1,72,0.00,CLR,,0.00,446.0,WeatherDisplay:10.37,2013-04-04 14:52:00,
2013-04-04 09:57:00,38.7,30.1,30.11,NW,305,7.4,10.4,71,0.00,CLR,,0.00,457.0,WeatherDisplay:10.37,2013-04-04 14:57:00,
2013-04-04 10:04:00,38.9,30.3,30.11,North,5,5.3,8.1,71,0.00,CLR,,0.00,469.0,WeatherDisplay:10.37,2013-04-04 15:04:00,
2013-04-04 10:09:00,39.3,30.7,30.11,NNW,327,4.1,6.0,71,0.00,CLR,,0.00,443.0,WeatherDisplay:10.37,2013-04-04 15:09:00,
2013-04-04 10:15:00,39.6,30.6,30.11,NNW,332,5.6,8.1,70,0.00,CLR,,0.00,475.0,WeatherDisplay:10.37,2013-04-04 15:15:00,
2013-04-04 10:20:00,39.7,30.7,30.12,NW,321,3.0,7.0,70,0.00,CLR,CLR,0.00,526.0,WeatherDisplay:10.37,2013-04-04 15:20:00,
2013-04-04 10:25:00,39.9,30.6,30.12,NW,323,5.0,7.0,69,0.00,CLR,CLR,0.00,548.0,WeatherDisplay:10.37,2013-04-04 15:25:00,
2013-04-04 10:30:00,40.4,30.7,30.12,NW,325,3.0,8.0,68,0.00,CLR,CLR,0.00,559.0,WeatherDisplay:10.37,2013-04-04 15:30:00,
2013-04-04 10:35:00,40.9,30.8,30.12,NNW,335,5.0,7.0,67,0.00,CLR,CLR,0.00,571.0,WeatherDisplay:10.37,2013-04-04 15:35:00,
2013-04-04 10:40:00,41.1,30.6,30.12,NW,322,7.0,10.0,66,0.00,CLR,CLR,0.00,584.0,WeatherDisplay:10.37,2013-04-04 15:40:00,
2013-04-04 10:45:00,41.0,30.1,30.13,NW,317,7.0,12.0,65,0.00,CLR,CLR,0.00,605.0,WeatherDisplay:10.37,2013-04-04 15:45:00,
2013-04-04 10:50:00,40.8,29.9,30.13,NW,313,3.0,12.0,65,0.00,CLR,CLR,0.00,592.0,WeatherDisplay:10.37,2013-04-04 15:50:00,
2013-04-04 10:55:00,40.9,30.0,30.13,NW,314,7.0,10.0,65,0.00,CLR,CLR,0.00,628.0,WeatherDisplay:10.37,2013-04-04 15:55:00,
2013-04-04 11:00:00,41.2,29.9,30.13,NW,325,6.0,12.0,64,0.00,CLR,CLR,0.00,629.0,WeatherDisplay:10.37,2013-04-04 16:00:00,
2013-04-04 11:05:00,41.8,30.1,30.13,NNW,338,3.0,8.0,63,0.00,CLR,CLR,0.00,622.0,WeatherDisplay:10.37,2013-04-04 16:05:00,
2013-04-04 11:10:00,42.0,29.9,30.13,NNW,334,6.0,12.0,62,0.00,CLR,CLR,0.00,659.0,WeatherDisplay:10.37,2013-04-04 16:10:00,
2013-04-04 11:15:00,42.0,29.9,30.14,NNW,328,5.3,10.4,62,0.00,CLR,,0.00,661.0,WeatherDisplay:10.37,2013-04-04 16:15:00,
2013-04-04 11:20:00,42.2,29.7,30.14,NW,317,4.4,8.1,61,0.00,CLR,,0.00,673.0,WeatherDisplay:10.37,2013-04-04 16:20:00,
2013-04-04 11:25:00,42.5,30.4,30.14,WNW,299,5.9,8.0,62,0.00,CLR,,0.00,686.0,WeatherDisplay:10.37,2013-04-04 16:25:00,
2013-04-04 11:31:00,42.9,30.8,30.14,NNW,327,5.8,9.0,62,0.00,CLR,,0.00,693.0,WeatherDisplay:10.37,2013-04-04 16:31:00,
2013-04-04 11:36:00,43.0,30.5,30.14,WNW,295,4.0,10.4,61,0.00,CLR,,0.00,705.0,WeatherDisplay:10.37,2013-04-04 16:36:00,
2013-04-04 11:42:00,43.2,30.2,30.14,NNW,339,6.7,12.0,60,0.00,CLR,,0.00,721.0,WeatherDisplay:10.37,2013-04-04 16:42:00,
2013-04-04 11:47:00,43.3,30.3,30.14,North,355,7.0,11.5,60,0.00,CLR,,0.00,735.0,WeatherDisplay:10.37,2013-04-04 16:47:00,
2013-04-04 11:52:00,43.4,30.4,30.14,NNW,332,5.2,8.1,60,0.00,CLR,,0.00,737.0,WeatherDisplay:10.37,2013-04-04 16:52:00,
2013-04-04 11:57:00,43.6,30.6,30.14,WNW,302,7.2,12.0,60,0.00,CLR,,0.00,740.0,WeatherDisplay:10.37,2013-04-04 16:57:00,
2013-04-04 12:04:00,43.7,30.7,30.14,NW,305,6.4,10.0,60,0.00,CLR,,0.00,751.0,WeatherDisplay:10.37,2013-04-04 17:04:00,
2013-04-04 12:09:00,43.9,30.5,30.15,NNE,17,4.9,7.0,59,0.00,CLR,,0.00,747.0,WeatherDisplay:10.37,2013-04-04 17:09:00,
2013-04-04 12:15:00,44.0,30.6,30.15,NW,326,6.0,12.0,59,0.00,CLR,CLR,0.00,763.0,WeatherDisplay:10.37,2013-04-04 17:15:00,
2013-04-04 12:20:00,44.6,30.7,30.15,NW,320,8.0,10.0,58,0.00,CLR,CLR,0.00,772.0,WeatherDisplay:10.37,2013-04-04 17:20:00,
2013-04-04 12:25:00,44.7,30.4,30.14,NW,322,5.0,12.0,57,0.00,CLR,CLR,0.00,777.0,WeatherDisplay:10.37,2013-04-04 17:25:00,
2013-04-04 12:30:00,44.6,30.3,30.14,NW,317,5.0,12.0,57,0.00,CLR,CLR,0.00,782.0,WeatherDisplay:10.37,2013-04-04 17:30:00,
2013-04-04 12:35:00,44.5,29.8,30.14,NW,315,6.0,14.0,56,0.00,CLR,CLR,0.00,784.0,WeatherDisplay:10.37,2013-04-04 17:35:00,
2013-04-04 12:40:00,44.9,30.1,30.14,NNW,329,6.0,12.0,56,0.00,CLR,CLR,0.00,788.0,WeatherDisplay:10.37,2013-04-04 17:40:00,
2013-04-04 12:45:00,44.9,29.7,30.14,NNW,334,3.0,12.0,55,0.00,CLR,CLR,0.00,789.0,WeatherDisplay:10.37,2013-04-04 17:45:00,
2013-04-04 12:50:00,44.9,29.7,30.14,NNW,343,9.6,13.0,55,0.00,CLR,,0.00,791.0,WeatherDisplay:10.37,2013-04-04 17:50:00,
2013-04-04 12:55:00,45.3,31.0,30.14,NNW,342,5.1,8.1,57,0.00,CLR,,0.00,798.0,WeatherDisplay:10.37,2013-04-04 17:55:00,
2013-04-04 13:00:00,45.7,30.9,30.14,North,350,4.2,8.1,56,0.00,CLR,,0.00,798.0,WeatherDisplay:10.37,2013-04-04 18:00:00,
2013-04-04 13:05:00,46.0,30.7,30.14,NW,309,4.2,8.1,55,0.00,CLR,,0.00,800.0,WeatherDisplay:10.37,2013-04-04 18:05:00,
2013-04-04 13:10:00,45.6,30.8,30.14,WNW,292,6.4,10.0,56,0.00,CLR,,0.00,814.0,WeatherDisplay:10.37,2013-04-04 18:10:00,
2013-04-04 13:15:00,45.5,31.1,30.14,NNW,328,4.6,11.0,57,0.00,CLR,,0.00,814.0,WeatherDisplay:10.37,2013-04-04 18:15:00,
2013-04-04 13:20:00,45.8,31.0,30.14,NW,311,6.2,11.5,56,0.00,CLR,,0.00,738.0,WeatherDisplay:10.37,2013-04-04 18:20:00,
2013-04-04 13:25:00,45.6,30.8,30.15,WNW,302,4.8,8.0,56,0.00,CLR,,0.00,840.0,WeatherDisplay:10.37,2013-04-04 18:25:00,
2013-04-04 13:30:00,45.8,31.0,30.15,NNW,336,3.1,7.0,56,0.00,CLR,,0.00,803.0,WeatherDisplay:10.37,2013-04-04 18:30:00,
2013-04-04 13:36:00,45.7,30.4,30.15,NW,313,6.2,10.0,55,0.00,CLR,,0.00,796.0,WeatherDisplay:10.37,2013-04-04 18:36:00,
2013-04-04 13:42:00,45.4,30.2,30.15,WNW,294,6.1,11.5,55,0.00,CLR,,0.00,765.0,WeatherDisplay:10.37,2013-04-04 18:42:00,
2013-04-04 13:47:00,45.5,29.8,30.15,WNW,300,8.1,13.0,54,0.00,CLR,,0.00,733.0,WeatherDisplay:10.37,2013-04-04 18:47:00,
2013-04-04 13:52:00,45.6,29.9,30.15,WNW,300,6.0,13.0,54,0.00,CLR,,0.00,791.0,WeatherDisplay:10.37,2013-04-04 18:52:00,
2013-04-04 13:59:00,46.2,28.6,30.15,NW,320,5.8,13.8,50,0.00,CLR,,0.00,784.0,WeatherDisplay:10.37,2013-04-04 18:59:00,
2013-04-04 14:04:00,46.2,29.1,30.15,NW,309,11.7,16.1,51,0.00,CLR,,0.00,777.0,WeatherDisplay:10.37,2013-04-04 19:04:00,
2013-04-04 14:09:00,46.0,28.9,30.15,WNW,295,6.5,9.2,51,0.00,CLR,,0.00,793.0,WeatherDisplay:10.37,2013-04-04 19:09:00,
2013-04-04 14:15:00,46.1,29.0,30.15,NW,307,8.0,12.0,51,0.00,CLR,CLR,0.00,768.0,WeatherDisplay:10.37,2013-04-04 19:15:00,
2013-04-04 14:20:00,45.7,28.1,30.15,NW,311,9.0,16.0,50,0.00,CLR,CLR,0.00,780.0,WeatherDisplay:10.37,2013-04-04 19:20:00,
2013-04-04 14:25:00,45.2,27.6,30.15,NW,317,8.0,14.0,50,0.00,CLR,CLR,0.00,772.0,WeatherDisplay:10.37,2013-04-04 19:25:00,
2013-04-04 14:30:00,45.2,28.1,30.15,NW,318,7.0,14.0,51,0.00,CLR,CLR,0.00,763.0,WeatherDisplay:10.37,2013-04-04 19:30:00,
2013-04-04 14:35:00,45.7,28.1,30.15,NNW,327,6.0,14.0,50,0.00,CLR,CLR,0.00,756.0,WeatherDisplay:10.37,2013-04-04 19:35:00,
2013-04-04 14:40:00,45.9,28.8,30.15,NNW,327,6.0,14.0,51,0.00,CLR,CLR,0.00,724.0,WeatherDisplay:10.37,2013-04-04 19:40:00,
2013-04-04 14:45:00,45.8,28.2,30.15,NW,324,8.0,13.0,50,0.00,CLR,CLR,0.00,747.0,WeatherDisplay:10.37,2013-04-04 19:45:00,
2013-04-04 14:50:00,45.5,27.5,30.14,NW,320,7.0,13.0,49,0.00,CLR,CLR,0.00,735.0,WeatherDisplay:10.37,2013-04-04 19:50:00,
2013-04-04 14:55:00,45.9,28.3,30.14,NNW,328,7.0,15.0,50,0.00,CLR,CLR,0.00,738.0,WeatherDisplay:10.37,2013-04-04 19:55:00,
2013-04-04 15:00:00,45.7,27.1,30.15,NNW,343,9.0,17.0,48,0.00,CLR,CLR,0.00,744.0,WeatherDisplay:10.37,2013-04-04 20:00:00,
2013-04-04 15:05:00,45.6,27.5,30.15,NNW,333,8.0,15.0,49,0.00,CLR,CLR,0.00,689.0,WeatherDisplay:10.37,2013-04-04 20:05:00,
2013-04-04 15:10:00,45.5,27.4,30.15,NNW,337,7.0,14.0,49,0.00,CLR,CLR,0.00,677.0,WeatherDisplay:10.37,2013-04-04 20:10:00,
2013-04-04 15:15:00,45.0,27.0,30.15,NNW,329,8.0,15.0,49,0.00,CLR,CLR,0.00,686.0,WeatherDisplay:10.37,2013-04-04 20:15:00,
2013-04-04 15:20:00,45.0,27.0,30.15,NNW,336,9.3,14.0,49,0.00,CLR,,0.00,708.0,WeatherDisplay:10.37,2013-04-04 20:20:00,
2013-04-04 15:25:00,45.0,27.0,30.14,WNW,302,8.2,17.3,49,0.00,CLR,,0.00,689.0,WeatherDisplay:10.37,2013-04-04 20:25:00,
2013-04-04 15:30:00,45.0,26.5,30.15,NNW,332,7.3,11.5,48,0.00,CLR,,0.00,673.0,WeatherDisplay:10.37,2013-04-04 20:30:00,
2013-04-04 15:35:00,44.9,26.9,30.14,NNW,338,4.0,6.0,49,0.00,CLR,,0.00,664.0,WeatherDisplay:10.37,2013-04-04 20:35:00,
2013-04-04 15:40:00,45.1,27.6,30.15,NW,323,6.7,13.0,50,0.00,CLR,,0.00,654.0,WeatherDisplay:10.37,2013-04-04 20:40:00,
2013-04-04 15:45:00,45.0,27.0,30.14,WNW,292,8.2,12.7,49,0.00,CLR,,0.00,645.0,WeatherDisplay:10.37,2013-04-04 20:45:00,
2013-04-04 15:50:00,44.7,27.2,30.14,NW,325,8.8,14.0,50,0.00,CLR,,0.00,631.0,WeatherDisplay:10.37,2013-04-04 20:50:00,
2013-04-04 15:55:00,44.7,26.7,30.14,NNW,327,9.3,13.0,49,0.00,CLR,,0.00,624.0,WeatherDisplay:10.37,2013-04-04 20:55:00,
2013-04-04 16:00:00,44.8,27.8,30.14,NW,311,4.0,10.4,51,0.00,CLR,,0.00,612.0,WeatherDisplay:10.37,2013-04-04 21:00:00,
2013-04-04 16:05:00,44.8,26.8,30.14,NNW,338,6.8,11.5,49,0.00,CLR,,0.00,598.0,WeatherDisplay:10.37,2013-04-04 21:05:00,
2013-04-04 16:10:00,44.8,26.8,30.14,WNW,297,6.3,12.7,49,0.00,CLR,,0.00,587.0,WeatherDisplay:10.37,2013-04-04 21:10:00,
2013-04-04 16:15:00,44.4,25.9,30.14,NW,309,6.8,11.5,48,0.00,CLR,,0.00,578.0,WeatherDisplay:10.37,2013-04-04 21:15:00,
2013-04-04 16:20:00,44.3,26.3,30.14,NW,313,7.8,12.0,49,0.00,CLR,,0.00,561.0,WeatherDisplay:10.37,2013-04-04 21:20:00,
2013-04-04 16:25:00,44.3,25.8,30.14,NW,309,6.2,12.0,48,0.00,CLR,,0.00,550.0,WeatherDisplay:10.37,2013-04-04 21:25:00,
2013-04-04 16:30:00,43.9,26.0,30.14,WNW,290,7.5,11.5,49,0.00,CLR,,0.00,538.0,WeatherDisplay:10.37,2013-04-04 21:30:00,
2013-04-04 16:35:00,43.9,26.4,30.14,NNW,344,3.7,10.4,50,0.00,CLR,,0.00,526.0,WeatherDisplay:10.37,2013-04-04 21:35:00,
2013-04-04 16:40:00,44.0,26.0,30.14,WNW,299,5.4,9.2,49,0.00,CLR,,0.00,515.0,WeatherDisplay:10.37,2013-04-04 21:40:00,
2013-04-04 16:45:00,43.8,25.9,30.14,NW,326,5.0,11.5,49,0.00,CLR,,0.00,499.0,WeatherDisplay:10.37,2013-04-04 21:45:00,
2013-04-04 16:50:00,43.8,26.3,30.14,NW,319,8.5,14.0,50,0.00,CLR,,0.00,489.0,WeatherDisplay:10.37,2013-04-04 21:50:00,
2013-04-04 16:55:00,43.6,26.2,30.14,NW,326,5.4,9.2,50,0.00,CLR,,0.00,475.0,WeatherDisplay:10.37,2013-04-04 21:55:00,
2013-04-04 17:00:00,43.6,26.2,30.15,NW,323,8.8,13.0,50,0.00,CLR,,0.00,461.0,WeatherDisplay:10.37,2013-04-04 22:00:00,
2013-04-04 17:05:00,43.5,26.1,30.15,WNW,297,5.2,7.0,50,0.00,CLR,,0.00,443.0,WeatherDisplay:10.37,2013-04-04 22:05:00,
2013-04-04 17:10:00,43.4,26.5,30.15,NW,307,6.1,9.2,51,0.00,CLR,,0.00,432.0,WeatherDisplay:10.37,2013-04-04 22:10:00,
2013-04-04 17:15:00,43.5,26.6,30.15,NW,306,4.1,9.2,51,0.00,CLR,,0.00,413.0,WeatherDisplay:10.37,2013-04-04 22:15:00,
2013-04-04 17:20:00,43.3,25.9,30.15,NW,306,8.1,12.7,50,0.00,CLR,,0.00,403.0,WeatherDisplay:10.37,2013-04-04 22:20:00,
2013-04-04 17:25:00,42.8,25.9,30.15,NNW,346,4.2,9.2,51,0.00,CLR,,0.00,385.0,WeatherDisplay:10.37,2013-04-04 22:25:00,
2013-04-04 17:30:00,42.5,25.6,30.15,NW,315,8.1,16.1,51,0.00,CLR,,0.00,373.0,WeatherDisplay:10.37,2013-04-04 22:30:00,
2013-04-04 17:35:00,42.3,25.9,30.15,NNW,340,4.8,8.1,52,0.00,CLR,,0.00,357.0,WeatherDisplay:10.37,2013-04-04 22:35:00,
2013-04-04 17:40:00,42.4,25.5,30.15,NW,314,3.6,7.0,51,0.00,CLR,,0.00,339.0,WeatherDisplay:10.37,2013-04-04 22:40:00,
2013-04-04 17:45:00,42.4,25.1,30.15,NW,323,3.2,6.9,50,0.00,CLR,,0.00,327.0,WeatherDisplay:10.37,2013-04-04 22:45:00,
2013-04-04 17:50:00,42.4,25.5,30.15,NW,322,7.6,13.0,51,0.00,CLR,,0.00,313.0,WeatherDisplay:10.37,2013-04-04 22:50:00,
2013-04-04 17:55:00,42.1,24.8,30.15,NW,316,5.3,9.2,50,0.00,CLR,,0.00,294.0,WeatherDisplay:10.37,2013-04-04 22:55:00,
2013-04-04 18:00:00,42.0,25.2,30.15,NNE,21,5.0,10.4,51,0.00,CLR,,0.00,281.0,WeatherDisplay:10.37,2013-04-04 23:00:00,
2013-04-04 18:05:00,42.0,25.2,30.15,NW,319,4.0,7.0,51,0.00,CLR,,0.00,265.0,WeatherDisplay:10.37,2013-04-04 23:05:00,
2013-04-04 18:10:00,42.1,25.3,30.16,NW,321,5.9,10.0,51,0.00,CLR,,0.00,248.0,WeatherDisplay:10.37,2013-04-04 23:10:00,
2013-04-04 18:15:00,42.0,25.6,30.16,NW,308,5.4,8.1,52,0.00,CLR,,0.00,229.0,WeatherDisplay:10.37,2013-04-04 23:15:00,
2013-04-04 18:20:00,41.7,25.4,30.16,NNE,17,4.7,6.0,52,0.00,CLR,,0.00,207.0,WeatherDisplay:10.37,2013-04-04 23:20:00,
2013-04-04 18:25:00,41.6,26.6,30.16,NNW,328,5.5,10.4,55,0.00,CLR,,0.00,190.0,WeatherDisplay:10.37,2013-04-04 23:25:00,
2013-04-04 18:30:00,41.3,26.3,30.16,NW,311,5.6,9.2,55,0.00,CLR,,0.00,174.0,WeatherDisplay:10.37,2013-04-04 23:30:00,
2013-04-04 18:35:00,41.1,26.6,30.16,NW,319,4.4,8.1,56,0.00,CLR,,0.00,153.0,WeatherDisplay:10.37,2013-04-04 23:35:00,
2013-04-04 18:42:00,40.7,26.2,30.17,WNW,284,7.5,13.0,56,0.00,CLR,,0.00,132.0,WeatherDisplay:10.37,2013-04-04 23:42:00,
2013-04-04 18:47:00,40.1,26.1,30.17,NW,319,8.2,13.0,57,0.00,CLR,,0.00,49.0,WeatherDisplay:10.37,2013-04-04 23:47:00,
2013-04-04 18:52:00,39.7,26.1,30.17,NW,306,3.6,8.0,58,0.00,CLR,,0.00,37.0,WeatherDisplay:10.37,2013-04-04 23:52:00,
2013-04-04 18:57:00,39.3,26.2,30.17,NW,321,4.3,8.1,59,0.00,CLR,,0.00,33.0,WeatherDisplay:10.37,2013-04-04 23:57:00,
2013-04-04 19:02:00,39.0,25.9,30.17,NW,313,2.6,6.0,59,0.00,CLR,,0.00,32.0,WeatherDisplay:10.37,2013-04-05 00:02:00,
2013-04-04 19:07:00,38.7,26.0,30.17,WNW,296,4.5,9.2,60,0.00,CLR,,0.00,28.0,WeatherDisplay:10.37,2013-04-05 00:07:00,
2013-04-04 19:12:00,38.5,25.8,30.17,NW,315,6.3,9.2,60,0.00,CLR,,0.00,26.0,WeatherDisplay:10.37,2013-04-05 00:12:00,
2013-04-04 19:17:00,38.3,25.2,30.17,WNW,298,5.2,8.1,59,0.00,CLR,,0.00,32.0,WeatherDisplay:10.37,2013-04-05 00:17:00,
2013-04-04 19:22:00,38.1,25.0,30.17,NW,318,4.6,9.2,59,0.00,CLR,,0.00,25.0,WeatherDisplay:10.37,2013-04-05 00:22:00,
2013-04-04 19:27:00,37.9,24.8,30.17,NW,323,3.8,8.1,59,0.00,CLR,,0.00,19.0,WeatherDisplay:10.37,2013-04-05 00:27:00,
2013-04-04 19:32:00,37.7,25.1,30.17,NW,317,4.1,7.0,60,0.00,CLR,,0.00,16.0,WeatherDisplay:10.37,2013-04-05 00:32:00,
2013-04-04 19:37:00,37.3,24.7,30.17,NW,324,3.7,8.1,60,0.00,CLR,,0.00,14.0,WeatherDisplay:10.37,2013-04-05 00:37:00,
2013-04-04 19:44:00,37.0,24.8,30.17,NW,313,3.3,8.1,61,0.00,CLR,,0.00,9.0,WeatherDisplay:10.37,2013-04-05 00:44:00,
2013-04-04 19:49:00,36.5,24.7,30.17,NW,315,3.7,6.0,62,0.00,CLR,,0.00,5.0,WeatherDisplay:10.37,2013-04-05 00:49:00,
2013-04-04 19:54:00,36.3,24.9,30.17,WNW,299,3.4,8.0,63,0.00,CLR,,0.00,0.0,WeatherDisplay:10.37,2013-04-05 00:54:00,
2013-04-04 19:59:00,36.1,25.1,30.17,NW,317,3.5,6.0,64,0.00,CLR,,0.00,0.0,WeatherDisplay:10.37,2013-04-05 00:59:00,
2013-04-04 20:05:00,35.9,24.9,30.17,NW,320,4.6,6.0,64,0.00,CLR,,0.00,0.0,WeatherDisplay:10.37,2013-04-05 01:05:00,
2013-04-04 20:10:00,35.7,25.1,30.17,NW,316,3.0,8.0,65,0.00,CLR,CLR,0.00,0.0,WeatherDisplay:10.37,2013-04-05 01:10:00,
2013-04-04 20:15:00,35.5,24.9,30.17,NW,318,3.0,9.0,65,0.00,CLR,CLR,0.00,0.0,WeatherDisplay:10.37,2013-04-05 01:15:00,
2013-04-04 20:20:00,35.3,25.1,30.17,NW,318,3.0,9.0,66,0.00,CLR,CLR,0.00,0.0,WeatherDisplay:10.37,2013-04-05 01:20:00,
2013-04-04 20:25:00,35.1,25.2,30.17,NW,314,2.0,7.0,67,0.00,CLR,CLR,0.00,0.0,WeatherDisplay:10.37,2013-04-05 01:25:00,
2013-04-04 20:30:00,34.9,25.1,30.18,NW,313,3.0,7.0,67,0.00,CLR,CLR,0.00,0.0,WeatherDisplay:10.37,2013-04-05 01:30:00,
2013-04-04 20:35:00,34.8,25.3,30.18,NW,311,5.0,8.0,68,0.00,CLR,CLR,0.00,0.0,WeatherDisplay:10.37,2013-04-05 01:35:00,
2013-04-04 20:40:00,34.7,25.2,30.18,NW,311,3.0,7.0,68,0.00,CLR,CLR,0.00,0.0,WeatherDisplay:10.37,2013-04-05 01:40:00,
2013-04-04 20:45:00,34.5,25.4,30.19,NW,324,3.0,8.0,69,0.00,CLR,CLR,0.00,0.0,WeatherDisplay:10.37,2013-04-05 01:45:00,
2013-04-04 20:50:00,34.3,25.2,30.19,NW,323,2.0,7.0,69,0.00,CLR,CLR,0.00,0.0,WeatherDisplay:10.37,2013-04-05 01:50:00,
2013-04-04 20:55:00,34.1,25.4,30.19,NNW,328,5.0,7.0,70,0.00,CLR,CLR,0.00,0.0,WeatherDisplay:10.37,2013-04-05 01:55:00,
2013-04-04 21:00:00,33.9,25.5,30.19,North,350,3.0,6.0,71,0.00,CLR,,0.00,0.0,WeatherDisplay:10.37,2013-04-05 02:00:00,
2013-04-04 21:05:00,33.8,25.4,30.19,NW,318,5.2,8.1,71,0.00,CLR,,0.00,0.0,WeatherDisplay:10.37,2013-04-05 02:05:00,
2013-04-04 21:10:00,33.7,25.3,30.19,NW,310,5.2,10.0,71,0.00,CLR,,0.00,0.0,WeatherDisplay:10.37,2013-04-05 02:10:00,
2013-04-04 21:17:00,33.5,25.1,30.19,NNW,327,3.7,9.2,71,0.00,CLR,,0.00,0.0,WeatherDisplay:10.37,2013-04-05 02:17:00,
2013-04-04 21:22:00,33.3,25.2,30.19,NW,326,1.2,4.0,72,0.00,CLR,,0.00,0.0,WeatherDisplay:10.37,2013-04-05 02:22:00,
2013-04-04 21:27:00,33.1,25.1,30.19,NNW,331,4.1,7.0,72,0.00,CLR,,0.00,0.0,WeatherDisplay:10.37,2013-04-05 02:27:00,
2013-04-04 21:34:00,33.0,25.0,30.19,NNW,329,2.7,5.0,72,0.00,CLR,,0.00,0.0,WeatherDisplay:10.37,2013-04-05 02:34:00,
2013-04-04 21:39:00,32.9,24.9,30.19,NW,325,2.5,9.2,72,0.00,CLR,,0.00,0.0,WeatherDisplay:10.37,2013-04-05 02:39:00,
2013-04-04 21:44:00,32.8,24.8,30.20,SE,142,4.0,6.9,72,0.00,CLR,,0.00,0.0,WeatherDisplay:10.37,2013-04-05 02:44:00,
2013-04-04 21:49:00,32.5,24.8,30.20,NNW,340,4.4,6.0,73,0.00,CLR,,0.00,0.0,WeatherDisplay:10.37,2013-04-05 02:49:00,
2013-04-04 21:55:00,32.4,24.7,30.20,NNW,331,2.0,8.0,73,0.00,CLR,CLR,0.00,0.0,WeatherDisplay:10.37,2013-04-05 02:55:00,
2013-04-04 22:00:00,32.2,24.8,30.20,North,355,3.3,6.0,74,0.00,CLR,,0.00,0.0,WeatherDisplay:10.37,2013-04-05 03:00:00,
2013-04-04 22:05:00,32.0,24.6,30.20,NW,324,2.2,4.0,74,0.00,CLR,,0.00,0.0,WeatherDisplay:10.37,2013-04-05 03:05:00,
2013-04-04 22:10:00,31.9,24.6,30.20,NW,313,4.3,7.0,74,0.00,CLR,,0.00,0.0,WeatherDisplay:10.37,2013-04-05 03:10:00,
2013-04-04 22:15:00,31.8,24.8,30.20,NW,312,2.1,3.5,75,0.00,CLR,,0.00,0.0,WeatherDisplay:10.37,2013-04-05 03:15:00,
2013-04-04 22:20:00,31.7,24.7,30.20,NW,321,3.0,5.0,75,0.00,CLR,,0.00,0.0,WeatherDisplay:10.37,2013-04-05 03:20:00,
2013-04-04 22:25:00,31.5,24.5,30.20,NW,321,3.8,7.0,75,0.00,CLR,,0.00,0.0,WeatherDisplay:10.37,2013-04-05 03:25:00,
2013-04-04 22:30:00,31.4,24.4,30.20,NW,325,1.4,3.5,75,0.00,CLR,,0.00,0.0,WeatherDisplay:10.37,2013-04-05 03:30:00,
2013-04-04 22:35:00,31.2,24.5,30.20,NW,321,1.2,3.5,76,0.00,CLR,,0.00,0.0,WeatherDisplay:10.37,2013-04-05 03:35:00,
2013-04-04 22:40:00,31.0,24.3,30.20,NW,317,1.6,4.0,76,0.00,CLR,,0.00,0.0,WeatherDisplay:10.37,2013-04-05 03:40:00,
2013-04-04 22:45:00,31.0,24.3,30.20,NNW,338,0.8,6.0,76,0.00,CLR,,0.00,0.0,WeatherDisplay:10.37,2013-04-05 03:45:00,
2013-04-04 22:50:00,30.9,24.2,30.21,NW,323,2.0,4.6,76,0.00,CLR,,0.00,0.0,WeatherDisplay:10.37,2013-04-05 03:50:00,
2013-04-04 22:55:00,30.8,24.1,30.21,NW,323,1.7,4.0,76,0.00,CLR,,0.00,0.0,WeatherDisplay:10.37,2013-04-05 03:55:00,
2013-04-04 23:00:00,30.7,24.0,30.21,NNW,327,1.0,8.0,76,0.00,CLR,CLR,0.00,0.0,WeatherDisplay:10.37,2013-04-05 04:00:00,
2013-04-04 23:04:00,30.6,23.9,30.21,NW,321,1.8,3.5,76,0.00,CLR,,0.00,0.0,WeatherDisplay:10.37,2013-04-05 04:04:00,
2013-04-04 23:05:00,30.6,23.9,30.21,NW,326,1.0,5.0,76,0.00,CLR,CLR,0.00,0.0,WeatherDisplay:10.37,2013-04-05 04:05:00,
2013-04-04 23:10:00,30.6,23.9,30.21,NW,317,2.0,5.0,76,0.00,CLR,CLR,0.00,0.0,WeatherDisplay:10.37,2013-04-05 04:10:00,
2013-04-04 23:15:00,30.5,23.8,30.21,NW,318,1.0,5.0,76,0.00,CLR,CLR,0.00,0.0,WeatherDisplay:10.37,2013-04-05 04:15:00,
2013-04-04 23:20:00,30.4,23.7,30.22,NW,324,1.0,5.0,76,0.00,CLR,CLR,0.00,0.0,WeatherDisplay:10.37,2013-04-05 04:20:00,
2013-04-04 23:25:00,30.3,23.6,30.22,NW,322,1.0,4.0,76,0.00,CLR,CLR,0.00,0.0,WeatherDisplay:10.37,2013-04-05 04:25:00,
2013-04-04 23:30:00,30.2,23.5,30.22,NW,318,1.0,3.0,76,0.00,CLR,CLR,0.00,0.0,WeatherDisplay:10.37,2013-04-05 04:30:00,
2013-04-04 23:35:00,30.1,23.4,30.22,NNW,327,2.0,3.0,76,0.00,CLR,CLR,0.00,0.0,WeatherDisplay:10.37,2013-04-05 04:35:00,
2013-04-04 23:40:00,30.0,23.4,30.22,NNW,333,1.0,3.0,76,0.00,CLR,CLR,0.00,0.0,WeatherDisplay:10.37,2013-04-05 04:40:00,
2013-04-04 23:45:00,29.9,23.3,30.22,NNW,330,1.0,3.0,76,0.00,CLR,CLR,0.00,0.0,WeatherDisplay:10.37,2013-04-05 04:45:00,
2013-04-04 23:50:00,29.7,23.1,30.22,NNW,332,1.0,3.0,76,0.00,CLR,CLR,0.00,0.0,WeatherDisplay:10.37,2013-04-05 04:50:00,
2013-04-04 23:55:00,29.6,23.3,30.22,NNW,327,1.0,5.0,77,0.00,CLR,CLR,0.00,0.0,WeatherDisplay:10.37,2013-04-05 04:55:00,